Location: Temple Hill
(37.3073°N, 88.6303°W)
Time: 16:59:22
(UTC+00:00)

Cosmos 1743 Rocket - Pass Details

Date: 23 November 2020
Orbit: 603 x 634 km, 82.6° (Epoch: 20 January)

Event Time Altitude Azimuth Distance (km) Brightness Sun altitude
Rises 23:02:56 0° 356° (N) 2,935 6.8 -5.1°
Reaches altitude 10° 23:05:12 10° 359° (N) 2,020 6.0 -5.5°
Maximum altitude 23:09:40 67° 82° (E) 683 3.6 -6.4°
Drops below altitude 10° 23:14:04 10° 165° (SSE) 1,992 6.2 -7.2°
Sets 23:16:17 0° 168° (SSE) 2,890 7.1 -7.6°
